Time,TemperatureF,DewpointF,PressureIn,WindDirection,WindDirectionDegrees,WindSpeedMPH,WindSpeedGustMPH,Humidity,HourlyPrecipIn,Conditions,Clouds,dailyrainin,SoftwareType,DateUTC
2013-08-02 00:00:00,50.5,50.5,29.89,NNW,340,0.0,0.0,100,0.00,,,0.00,Wunderground v.1.12,2013-08-02 07:00:00,
2013-08-02 00:10:00,49.9,49.9,29.89,NNW,340,0.0,0.0,100,0.00,,,0.00,Wunderground v.1.12,2013-08-02 07:10:00,
2013-08-02 00:20:00,49.9,49.9,29.89,NNW,340,0.0,0.0,100,0.00,,,0.00,Wunderground v.1.12,2013-08-02 07:20:00,
2013-08-02 00:30:00,49.6,49.6,29.89,NNW,342,0.0,0.0,100,0.00,,,0.00,Wunderground v.1.12,2013-08-02 07:30:00,
2013-08-02 00:40:00,49.8,49.8,29.88,NNW,342,0.0,0.0,100,0.00,,,0.00,Wunderground v.1.12,2013-08-02 07:40:00,
2013-08-02 00:50:00,49.6,49.6,29.88,ENE,75,0.0,0.0,100,0.00,,,0.00,Wunderground v.1.12,2013-08-02 07:50:00,
2013-08-02 01:00:00,49.5,49.5,29.88,ENE,75,0.0,0.0,100,0.00,,,0.00,Wunderground v.1.12,2013-08-02 08:00:00,
2013-08-02 01:10:00,49.2,49.2,29.87,ENE,73,0.0,0.0,100,0.00,,,0.00,Wunderground v.1.12,2013-08-02 08:10:00,
2013-08-02 01:20:00,49.1,49.1,29.87,ENE,73,0.0,0.0,100,0.00,,,0.00,Wunderground v.1.12,2013-08-02 08:20:00,
2013-08-02 01:30:00,48.8,48.8,29.87,ENE,73,0.0,0.0,100,0.00,,,0.00,Wunderground v.1.12,2013-08-02 08:30:00,
2013-08-02 01:40:00,48.5,48.5,29.86,ENE,73,0.0,0.0,100,0.00,,,0.00,Wunderground v.1.12,2013-08-02 08:40:00,
2013-08-02 01:50:00,47.7,47.7,29.86,ENE,73,0.0,0.0,100,0.00,,,0.00,Wunderground v.1.12,2013-08-02 08:50:00,
2013-08-02 02:00:00,47.1,47.1,29.86,ENE,73,0.0,0.0,100,0.00,,,0.00,Wunderground v.1.12,2013-08-02 09:00:00,
2013-08-02 02:10:00,46.8,46.8,29.86,ENE,73,0.0,0.0,100,0.00,,,0.00,Wunderground v.1.12,2013-08-02 09:10:00,
2013-08-02 02:20:00,47.3,47.3,29.86,ENE,73,0.0,0.0,100,0.00,,,0.00,Wunderground v.1.12,2013-08-02 09:20:00,
2013-08-02 02:30:00,48.2,48.2,29.86,ENE,73,0.0,0.0,100,0.00,,,0.00,Wunderground v.1.12,2013-08-02 09:30:00,
2013-08-02 02:40:00,48.2,48.2,29.86,ENE,73,0.0,0.0,100,0.00,,,0.00,Wunderground v.1.12,2013-08-02 09:40:00,
2013-08-02 02:50:00,48.5,48.5,29.85,ENE,76,0.0,0.0,100,0.00,,,0.00,Wunderground v.1.12,2013-08-02 09:50:00,
2013-08-02 03:00:00,47.9,47.9,29.85,ENE,76,0.0,0.0,100,0.00,,,0.00,Wunderground v.1.12,2013-08-02 10:00:00,
2013-08-02 03:10:00,47.7,47.7,29.85,ENE,76,0.0,0.0,100,0.00,,,0.00,Wunderground v.1.12,2013-08-02 10:10:00,
2013-08-02 03:20:00,47.1,47.1,29.85,ENE,76,0.0,0.0,100,0.00,,,0.00,Wunderground v.1.12,2013-08-02 10:20:00,
2013-08-02 03:30:00,47.3,47.3,29.85,SE,131,0.0,0.0,100,0.00,,,0.00,Wunderground v.1.12,2013-08-02 10:30:00,
2013-08-02 03:40:00,48.0,48.0,29.85,SE,131,0.0,0.0,100,0.00,,,0.00,Wunderground v.1.12,2013-08-02 10:40:00,
2013-08-02 03:50:00,48.5,48.5,29.85,SE,131,0.0,0.0,100,0.00,,,0.00,Wunderground v.1.12,2013-08-02 10:50:00,
2013-08-02 04:00:00,49.2,49.2,29.85,SE,131,0.0,0.0,100,0.00,,,0.00,Wunderground v.1.12,2013-08-02 11:00:00,
2013-08-02 04:10:00,49.8,49.8,29.85,SSW,212,0.0,0.0,100,0.00,,,0.00,Wunderground v.1.12,2013-08-02 11:10:00,
2013-08-02 04:20:00,50.7,50.7,29.84,SSW,212,0.0,2.0,100,0.00,,,0.00,Wunderground v.1.12,2013-08-02 11:20:00,
2013-08-02 04:30:00,52.3,52.3,29.84,West,279,0.0,0.0,100,0.00,,,0.00,Wunderground v.1.12,2013-08-02 11:30:00,
2013-08-02 04:40:00,52.6,52.6,29.84,West,279,0.0,0.0,100,0.00,,,0.00,Wunderground v.1.12,2013-08-02 11:40:00,
2013-08-02 04:50:00,52.5,52.5,29.84,West,279,0.0,0.0,100,0.00,,,0.00,Wunderground v.1.12,2013-08-02 11:50:00,
2013-08-02 05:00:00,52.5,52.5,29.84,West,279,1.0,1.0,100,0.00,,,0.00,Wunderground v.1.12,2013-08-02 12:00:00,
2013-08-02 05:10:00,52.6,52.6,29.84,West,279,0.0,0.0,100,0.00,,,0.00,Wunderground v.1.12,2013-08-02 12:10:00,
2013-08-02 05:19:00,52.6,52.6,29.84,West,279,0.0,0.0,100,0.00,,,0.00,Wunderground v.1.12,2013-08-02 12:19:00,
2013-08-02 05:20:00,52.6,52.6,29.84,West,270,0.0,1.0,100,0.00,,,-99.99,WeatherLink 5.8.2,2013-08-02 12:20:00,
2013-08-02 05:30:00,52.6,52.6,29.84,West,277,0.0,0.0,100,0.00,,,0.00,Wunderground v.1.12,2013-08-02 12:30:00,
2013-08-02 05:40:00,52.5,52.5,29.84,West,277,0.0,0.0,100,0.00,,,0.00,Wunderground v.1.12,2013-08-02 12:40:00,
2013-08-02 05:50:00,52.5,52.5,29.85,West,277,0.0,0.0,100,0.00,,,0.00,Wunderground v.1.12,2013-08-02 12:50:00,
2013-08-02 06:00:00,52.2,52.2,29.85,South,190,0.0,0.0,100,0.00,,,0.00,Wunderground v.1.12,2013-08-02 13:00:00,
2013-08-02 06:10:00,52.0,52.0,29.85,South,180,0.0,1.0,100,0.00,,,0.00,Wunderground v.1.12,2013-08-02 13:10:00,
2013-08-02 06:20:00,51.9,51.9,29.86,South,180,0.0,0.0,100,0.00,,,0.00,Wunderground v.1.12,2013-08-02 13:20:00,
2013-08-02 06:30:00,52.0,52.0,29.86,South,180,0.0,0.0,100,0.00,,,0.00,Wunderground v.1.12,2013-08-02 13:30:00,
2013-08-02 06:40:00,52.2,52.2,29.86,South,180,0.0,0.0,100,0.00,,,0.00,Wunderground v.1.12,2013-08-02 13:40:00,
2013-08-02 06:50:00,52.2,52.2,29.86,South,180,0.0,0.0,100,0.00,,,0.00,Wunderground v.1.12,2013-08-02 13:50:00,
2013-08-02 07:00:00,52.5,52.5,29.86,South,180,0.0,0.0,100,0.00,,,0.00,Wunderground v.1.12,2013-08-02 14:00:00,
2013-08-02 07:10:00,52.5,52.5,29.86,South,174,0.0,0.0,100,0.00,,,0.00,Wunderground v.1.12,2013-08-02 14:10:00,
2013-08-02 07:19:00,52.5,52.5,29.87,South,174,0.0,0.0,100,0.00,,,0.00,Wunderground v.1.12,2013-08-02 14:19:00,
2013-08-02 07:20:00,52.5,52.5,29.87,South,180,0.0,1.0,100,0.00,,,-99.99,WeatherLink 5.8.2,2013-08-02 14:20:00,
2013-08-02 07:30:00,52.6,52.6,29.87,South,175,0.0,0.0,100,0.00,,,0.00,Wunderground v.1.12,2013-08-02 14:30:00,
2013-08-02 07:40:00,52.9,52.9,29.87,South,177,0.0,0.0,100,0.00,,,0.00,Wunderground v.1.12,2013-08-02 14:40:00,
2013-08-02 07:50:00,52.9,52.9,29.87,South,188,0.0,0.0,100,0.00,,,0.00,Wunderground v.1.12,2013-08-02 14:50:00,
2013-08-02 08:00:00,52.9,52.9,29.87,SSW,206,0.0,0.0,100,0.00,,,0.00,Wunderground v.1.12,2013-08-02 15:00:00,
2013-08-02 08:10:00,53.1,53.1,29.88,SE,145,0.0,0.0,100,0.00,,,0.00,Wunderground v.1.12,2013-08-02 15:10:00,
2013-08-02 08:20:00,53.3,53.3,29.88,East,81,0.0,0.0,100,0.00,,,0.00,Wunderground v.1.12,2013-08-02 15:20:00,
2013-08-02 08:30:00,53.8,53.8,29.88,East,81,0.0,0.0,100,0.00,,,0.00,Wunderground v.1.12,2013-08-02 15:30:00,
2013-08-02 08:40:00,54.2,54.2,29.88,WNW,303,0.0,1.0,100,0.00,,,0.00,Wunderground v.1.12,2013-08-02 15:40:00,
2013-08-02 08:50:00,54.5,54.5,29.88,NNE,26,0.0,0.0,100,0.00,,,0.00,Wunderground v.1.12,2013-08-02 15:50:00,
2013-08-02 09:00:00,55.4,55.4,29.88,North,10,1.0,1.0,100,0.00,,,0.00,Wunderground v.1.12,2013-08-02 16:00:00,
2013-08-02 09:09:00,55.9,55.9,29.88,ENE,76,0.0,0.0,100,0.00,,,0.00,Wunderground v.1.12,2013-08-02 16:09:00,
2013-08-02 09:10:00,56.6,56.6,29.88,ENE,67,0.0,1.0,100,0.00,,,-99.99,WeatherLink 5.8.2,2013-08-02 16:10:00,
2013-08-02 09:20:00,57.3,57.3,29.87,West,281,0.0,0.0,100,0.00,,,0.00,Wunderground v.1.12,2013-08-02 16:20:00,
2013-08-02 09:30:00,58.7,58.7,29.87,North,360,0.0,0.0,100,0.00,,,0.00,Wunderground v.1.12,2013-08-02 16:30:00,
2013-08-02 09:40:00,60.1,60.1,29.87,WNW,294,0.0,0.0,100,0.00,,,0.00,Wunderground v.1.12,2013-08-02 16:40:00,
2013-08-02 09:49:00,60.5,60.5,29.87,West,259,1.0,1.0,100,0.00,,,0.00,Wunderground v.1.12,2013-08-02 16:49:00,
2013-08-02 09:50:00,61.0,61.0,29.87,West,270,0.0,3.0,100,0.00,,,-99.99,WeatherLink 5.8.2,2013-08-02 16:50:00,
2013-08-02 10:00:00,62.0,62.0,29.87,NE,37,0.0,0.0,100,0.00,,,0.00,Wunderground v.1.12,2013-08-02 17:00:00,
2013-08-02 10:10:00,64.2,64.2,29.87,SW,224,0.0,0.0,100,0.00,,,0.00,Wunderground v.1.12,2013-08-02 17:10:00,
2013-08-02 10:20:00,66.3,66.3,29.86,NW,321,0.0,0.0,100,0.00,,,0.00,Wunderground v.1.12,2013-08-02 17:20:00,
2013-08-02 10:29:00,68.4,68.4,29.86,SSE,161,0.0,0.0,100,0.00,,,0.00,Wunderground v.1.12,2013-08-02 17:29:00,
2013-08-02 10:30:00,68.9,68.9,29.86,SW,225,1.0,4.0,100,0.00,,,-99.99,WeatherLink 5.8.2,2013-08-02 17:30:00,
2013-08-02 10:40:00,69.6,69.6,29.86,SSW,213,0.0,0.0,100,0.00,,,0.00,Wunderground v.1.12,2013-08-02 17:40:00,
2013-08-02 10:50:00,71.3,71.3,29.85,West,264,0.0,0.0,100,0.00,,,0.00,Wunderground v.1.12,2013-08-02 17:50:00,
2013-08-02 11:00:00,73.2,73.2,29.85,SSW,211,0.0,0.0,100,0.00,,,0.00,Wunderground v.1.12,2013-08-02 18:00:00,
2013-08-02 11:10:00,74.9,74.9,29.85,South,172,0.0,0.0,100,0.00,,,0.00,Wunderground v.1.12,2013-08-02 18:10:00,
2013-08-02 11:20:00,75.4,75.4,29.84,West,272,0.0,0.0,100,0.00,,,0.00,Wunderground v.1.12,2013-08-02 18:20:00,
2013-08-02 11:30:00,76.0,76.0,29.84,ESE,105,0.0,0.0,100,0.00,,,0.00,Wunderground v.1.12,2013-08-02 18:30:00,
2013-08-02 11:40:00,78.3,78.3,29.84,SW,223,0.0,4.0,100,0.00,,,0.00,Wunderground v.1.12,2013-08-02 18:40:00,
2013-08-02 11:50:00,78.6,78.6,29.84,WNW,298,1.0,1.0,100,0.00,,,0.00,Wunderground v.1.12,2013-08-02 18:50:00,
2013-08-02 12:00:00,78.8,78.8,29.84,NW,321,1.0,1.0,100,0.00,,,0.00,Wunderground v.1.12,2013-08-02 19:00:00,
2013-08-02 12:10:00,80.7,80.7,29.83,SSW,198,1.0,2.0,100,0.00,,,0.00,Wunderground v.1.12,2013-08-02 19:10:00,
2013-08-02 12:20:00,81.2,81.2,29.83,WSW,247,1.0,8.0,100,0.00,,,0.00,Wunderground v.1.12,2013-08-02 19:20:00,
2013-08-02 12:30:00,79.4,79.4,29.83,SSW,208,4.0,4.0,100,0.00,,,0.00,Wunderground v.1.12,2013-08-02 19:30:00,
2013-08-02 12:40:00,78.6,78.6,29.84,South,185,3.0,7.0,100,0.00,,,0.00,Wunderground v.1.12,2013-08-02 19:40:00,
2013-08-02 12:50:00,78.8,78.8,29.83,SSW,211,4.0,6.0,100,0.00,,,0.00,Wunderground v.1.12,2013-08-02 19:50:00,
2013-08-02 13:00:00,78.5,78.5,29.83,SE,144,4.0,4.0,100,0.00,,,0.00,Wunderground v.1.12,2013-08-02 20:00:00,
2013-08-02 13:10:00,77.9,77.9,29.83,WNW,287,3.0,3.0,100,0.00,,,0.00,Wunderground v.1.12,2013-08-02 20:10:00,
2013-08-02 13:20:00,78.8,78.8,29.83,West,277,1.0,1.0,100,0.00,,,0.00,Wunderground v.1.12,2013-08-02 20:20:00,
2013-08-02 13:30:00,78.5,78.5,29.83,WNW,285,2.0,6.0,100,0.00,,,0.00,Wunderground v.1.12,2013-08-02 20:30:00,
2013-08-02 13:40:00,77.4,77.4,29.83,WNW,285,5.0,5.0,100,0.00,,,0.00,Wunderground v.1.12,2013-08-02 20:40:00,
2013-08-02 13:50:00,77.0,77.0,29.83,WNW,302,4.0,5.0,100,0.00,,,0.00,Wunderground v.1.12,2013-08-02 20:50:00,
2013-08-02 14:00:00,76.3,76.3,29.83,WSW,246,5.0,5.0,100,0.00,,,0.00,Wunderground v.1.12,2013-08-02 21:00:00,
2013-08-02 14:10:00,75.8,75.8,29.83,WSW,254,5.0,5.0,100,0.00,,,0.00,Wunderground v.1.12,2013-08-02 21:10:00,
2013-08-02 14:20:00,75.8,75.8,29.83,NW,308,4.0,6.0,100,0.00,,,0.00,Wunderground v.1.12,2013-08-02 21:20:00,
2013-08-02 14:30:00,74.6,74.6,29.83,West,280,5.0,7.0,100,0.00,,,0.00,Wunderground v.1.12,2013-08-02 21:30:00,
2013-08-02 14:40:00,73.2,73.2,29.83,NW,310,5.0,5.0,100,0.00,,,0.00,Wunderground v.1.12,2013-08-02 21:40:00,
2013-08-02 14:50:00,73.3,73.3,29.83,WNW,288,5.0,7.0,100,0.00,,,0.00,Wunderground v.1.12,2013-08-02 21:50:00,
2013-08-02 15:00:00,73.0,73.0,29.83,NW,311,5.0,5.0,100,0.00,,,0.00,Wunderground v.1.12,2013-08-02 22:00:00,
2013-08-02 15:10:00,72.8,72.8,29.83,NNW,348,5.0,5.0,100,0.00,,,0.00,Wunderground v.1.12,2013-08-02 22:10:00,
2013-08-02 15:20:00,73.2,73.2,29.82,West,280,4.0,6.0,100,0.00,,,0.00,Wunderground v.1.12,2013-08-02 22:20:00,
2013-08-02 15:30:00,73.0,73.0,29.82,West,275,5.0,5.0,100,0.00,,,0.00,Wunderground v.1.12,2013-08-02 22:30:00,
2013-08-02 15:40:00,72.5,72.5,29.82,West,267,5.0,5.0,100,0.00,,,0.00,Wunderground v.1.12,2013-08-02 22:40:00,
2013-08-02 15:50:00,71.8,71.8,29.82,WNW,289,5.0,5.0,100,0.00,,,0.00,Wunderground v.1.12,2013-08-02 22:50:00,
2013-08-02 16:00:00,70.8,70.8,29.82,WNW,295,5.0,5.0,100,0.00,,,0.00,Wunderground v.1.12,2013-08-02 23:00:00,
2013-08-02 16:10:00,70.3,70.3,29.82,West,279,6.0,9.0,100,0.00,,,0.00,Wunderground v.1.12,2013-08-02 23:10:00,
2013-08-02 16:20:00,69.6,69.6,29.82,West,268,6.0,7.0,100,0.00,,,0.00,Wunderground v.1.12,2013-08-02 23:20:00,
2013-08-02 16:30:00,69.8,69.8,29.82,WNW,300,5.0,5.0,100,0.00,,,0.00,Wunderground v.1.12,2013-08-02 23:30:00,
2013-08-02 16:40:00,69.1,69.1,29.82,WNW,293,5.0,5.0,100,0.00,,,0.00,Wunderground v.1.12,2013-08-02 23:40:00,
2013-08-02 16:50:00,69.9,69.9,29.82,NW,304,4.0,6.0,100,0.00,,,0.00,Wunderground v.1.12,2013-08-02 23:50:00,
2013-08-02 17:00:00,70.1,70.1,29.82,SW,221,3.0,3.0,100,0.00,,,0.00,Wunderground v.1.12,2013-08-03 00:00:00,
2013-08-02 17:10:00,69.6,69.6,29.82,WNW,290,3.0,5.0,100,0.00,,,0.00,Wunderground v.1.12,2013-08-03 00:10:00,
2013-08-02 17:20:00,69.8,69.8,29.82,SW,223,2.0,2.0,100,0.00,,,0.00,Wunderground v.1.12,2013-08-03 00:20:00,
2013-08-02 17:30:00,68.9,68.9,29.82,West,263,3.0,3.0,100,0.00,,,0.00,Wunderground v.1.12,2013-08-03 00:30:00,
2013-08-02 17:40:00,66.6,66.6,29.82,NW,308,4.0,4.0,100,0.00,,,0.00,Wunderground v.1.12,2013-08-03 00:40:00,
2013-08-02 17:50:00,65.2,65.2,29.82,West,278,5.0,5.0,100,0.00,,,0.00,Wunderground v.1.12,2013-08-03 00:50:00,
2013-08-02 18:00:00,64.7,64.7,29.82,WNW,286,4.0,4.0,100,0.00,,,0.00,Wunderground v.1.12,2013-08-03 01:00:00,
2013-08-02 18:10:00,64.3,64.3,29.82,West,267,4.0,4.0,100,0.00,,,0.00,Wunderground v.1.12,2013-08-03 01:10:00,
2013-08-02 18:20:00,63.7,63.7,29.82,WNW,290,4.0,4.0,100,0.00,,,0.00,Wunderground v.1.12,2013-08-03 01:20:00,
2013-08-02 18:29:00,63.5,63.5,29.82,NW,306,3.0,3.0,100,0.00,,,0.00,Wunderground v.1.12,2013-08-03 01:29:00,
2013-08-02 18:30:00,63.2,63.2,29.82,WNW,292,4.0,9.0,100,0.00,,,-99.99,WeatherLink 5.8.2,2013-08-03 01:30:00,
2013-08-02 18:40:00,62.6,62.6,29.82,WNW,290,4.0,4.0,100,0.00,,,0.00,Wunderground v.1.12,2013-08-03 01:40:00,
2013-08-02 18:50:00,61.8,61.8,29.82,West,266,4.0,6.0,100,0.00,,,0.00,Wunderground v.1.12,2013-08-03 01:50:00,
2013-08-02 19:00:00,61.0,61.0,29.82,West,265,4.0,4.0,100,0.00,,,0.00,Wunderground v.1.12,2013-08-03 02:00:00,
2013-08-02 19:10:00,60.5,60.5,29.82,WNW,296,3.0,3.0,100,0.00,,,0.00,Wunderground v.1.12,2013-08-03 02:10:00,
2013-08-02 19:20:00,60.1,60.1,29.82,WNW,292,3.0,4.0,100,0.00,,,0.00,Wunderground v.1.12,2013-08-03 02:20:00,
2013-08-02 19:30:00,59.6,59.6,29.82,WNW,290,2.0,3.0,100,0.00,,,0.00,Wunderground v.1.12,2013-08-03 02:30:00,
2013-08-02 19:40:00,58.7,58.7,29.82,WNW,293,2.0,2.0,100,0.00,,,0.00,Wunderground v.1.12,2013-08-03 02:40:00,
2013-08-02 19:50:00,58.1,58.1,29.82,WNW,282,0.0,2.0,100,0.00,,,0.00,Wunderground v.1.12,2013-08-03 02:50:00,
2013-08-02 20:00:00,57.0,57.0,29.82,WNW,288,0.0,0.0,100,0.00,,,0.00,Wunderground v.1.12,2013-08-03 03:00:00,
2013-08-02 20:10:00,56.3,56.3,29.82,WNW,285,1.0,1.0,100,0.00,,,0.00,Wunderground v.1.12,2013-08-03 03:10:00,
2013-08-02 20:20:00,55.7,55.7,29.83,WNW,285,0.0,0.0,100,0.00,,,0.00,Wunderground v.1.12,2013-08-03 03:20:00,
2013-08-02 20:30:00,55.3,55.3,29.83,WNW,285,0.0,0.0,100,0.00,,,0.00,Wunderground v.1.12,2013-08-03 03:30:00,
2013-08-02 20:40:00,54.8,54.8,29.83,WNW,285,0.0,0.0,100,0.00,,,0.00,Wunderground v.1.12,2013-08-03 03:40:00,
2013-08-02 20:50:00,54.5,54.5,29.83,WNW,285,0.0,0.0,100,0.00,,,0.00,Wunderground v.1.12,2013-08-03 03:50:00,
2013-08-02 21:00:00,54.2,54.2,29.83,WNW,285,0.0,0.0,100,0.00,,,0.00,Wunderground v.1.12,2013-08-03 04:00:00,
2013-08-02 21:03:00,54.1,54.1,29.83,WNW,292,0.0,2.0,100,0.00,,,-99.99,WeatherLink 5.8.2,2013-08-03 04:03:00,
2013-08-02 21:10:00,53.9,53.9,29.83,WNW,293,0.0,0.0,100,0.00,,,0.00,Wunderground v.1.12,2013-08-03 04:10:00,
2013-08-02 21:13:00,53.9,53.9,29.83,WNW,292,0.0,1.0,100,0.00,,,-99.99,WeatherLink 5.8.2,2013-08-03 04:13:00,
2013-08-02 21:20:00,54.1,54.1,29.84,WNW,293,0.0,0.0,100,0.00,,,0.00,Wunderground v.1.12,2013-08-03 04:20:00,
2013-08-02 21:30:00,54.4,54.4,29.84,WNW,292,0.0,0.0,100,0.00,,,0.00,Wunderground v.1.12,2013-08-03 04:30:00,
2013-08-02 21:40:00,54.5,54.5,29.84,SSW,207,0.0,0.0,100,0.00,,,0.00,Wunderground v.1.12,2013-08-03 04:40:00,
2013-08-02 21:50:00,54.7,54.7,29.84,SSW,207,0.0,0.0,100,0.00,,,0.00,Wunderground v.1.12,2013-08-03 04:50:00,
2013-08-02 22:00:00,54.7,54.7,29.84,SSW,207,0.0,0.0,100,0.00,,,0.00,Wunderground v.1.12,2013-08-03 05:00:00,
2013-08-02 22:10:00,55.0,55.0,29.84,SW,229,0.0,0.0,100,0.00,,,0.00,Wunderground v.1.12,2013-08-03 05:10:00,
2013-08-02 22:20:00,55.0,55.0,29.84,SW,228,0.0,0.0,100,0.00,,,0.00,Wunderground v.1.12,2013-08-03 05:20:00,
2013-08-02 22:30:00,55.0,55.0,29.84,SW,227,0.0,0.0,100,0.00,,,0.00,Wunderground v.1.12,2013-08-03 05:30:00,
2013-08-02 22:40:00,55.0,55.0,29.84,SW,228,0.0,0.0,100,0.00,,,0.00,Wunderground v.1.12,2013-08-03 05:40:00,
2013-08-02 22:50:00,55.0,55.0,29.83,West,264,1.0,1.0,100,0.00,,,0.00,Wunderground v.1.12,2013-08-03 05:50:00,
2013-08-02 23:00:00,55.0,55.0,29.83,West,269,1.0,1.0,100,0.00,,,0.00,Wunderground v.1.12,2013-08-03 06:00:00,
2013-08-02 23:10:00,55.0,55.0,29.83,West,269,0.0,0.0,100,0.00,,,0.00,Wunderground v.1.12,2013-08-03 06:10:00,
2013-08-02 23:20:00,54.8,54.8,29.83,West,269,0.0,0.0,100,0.00,,,0.00,Wunderground v.1.12,2013-08-03 06:20:00,
2013-08-02 23:30:00,54.7,54.7,29.83,WNW,290,1.0,1.0,100,0.00,,,0.00,Wunderground v.1.12,2013-08-03 06:30:00,
2013-08-02 23:40:00,54.5,54.5,29.83,WNW,288,0.0,0.0,100,0.00,,,0.00,Wunderground v.1.12,2013-08-03 06:40:00,
2013-08-02 23:50:00,54.4,54.4,29.83,WNW,288,0.0,0.0,100,0.00,,,0.00,Wunderground v.1.12,2013-08-03 06:50:00,